Hourly Data Report for October 01, 2017

All times are specified in Local Standard Time (LST). Add 1 hour to adjust for Daylight Saving Time where and when it is observed.

PENTICTON A
BRITISH COLUMBIA

49°27'45.000" N
119°36'08.000" W
344.40 m
1126146
71889
YYF

Download Data

Hourly Data (October 2017)
Hourly Data Report for October 1, 2017
Temp Definition
°C
Dew Point Temp Definition
°C
Rel Hum Definition
%
Wind Dir Definition
10's deg

Wind Spd Definition
km/h
Visibility Definition
km
Stn Press Definition
kPa
Hmdx Definition


Wind Chill Definition


Weather Definition


TIME
00:00 Legend Double Dagger 9.9 2.8 61 35 7 24.1 97.46     LegendNANA
01:00 Legend Double Dagger 10.1 3.8 65 34 7 24.1 97.48     Mostly Cloudy
02:00 Legend Double Dagger 9.2 3.2 66 35 11 24.1 97.49     LegendNANA
03:00 Legend Double Dagger 8.1 3.1 71 34 9 22.5 97.50     LegendNANA
04:00 Legend Double Dagger 9.0 4.7 74 36 9 19.3 97.53     Rain
05:00 Legend Double Dagger 10.0 4.7 70 34 8 24.1 97.53     Rain
06:00 Legend Double Dagger 9.3 5.6 77 33 10 24.1 97.58     Rain
07:00 Legend Double Dagger 10.2 6.0 75 33 10 24.1 97.63     Mostly Cloudy
08:00 Legend Double Dagger 11.4 5.5 67 2 6 24.1 97.63     LegendNANA
09:00 Legend Double Dagger 13.8 4.1 52 36 17 24.1 97.63     LegendNANA
10:00 Legend Double Dagger 14.3 2.5 45 34 23 24.1 97.63     Mostly Cloudy
11:00 Legend Double Dagger 15.9 2.1 39 1 28 24.1 97.62     LegendNANA
12:00 Legend Double Dagger 16.4 2.1 38 36 26 24.1 97.62     LegendNANA
13:00 Legend Double Dagger 15.7 2.8 42 36 30 24.1 97.65     Mostly Cloudy
14:00 Legend Double Dagger 15.3 1.1 38 36 33 24.1 97.65     LegendNANA
15:00 Legend Double Dagger 15.5 0.9 37 36 30 24.1 97.62     LegendNANA
16:00 Legend Double Dagger 14.7 1.4 40 2 15 24.1 97.62     Mostly Cloudy
17:00 Legend Double Dagger 14.2 1.4 42 36 26 24.1 97.63     LegendNANA
18:00 Legend Double Dagger 12.9 0.5 43 32 18 24.1 97.68     LegendNANA
19:00 Legend Double Dagger 12.3 0.4 44 34 16 24.1 97.75     Mostly Cloudy
20:00 Legend Double Dagger 12.0 1.3 48 36 12 24.1 97.79     LegendNANA
21:00 Legend Double Dagger 10.9 0.9 50 35 13 24.1 97.78     LegendNANA
22:00 Legend Double Dagger 10.2 0.9 52 33 10 24.1 97.79     Mostly Cloudy
23:00 Legend Double Dagger 11.0 0.9 50 33 16 24.1 97.80     LegendNANA

Notes on Data Quality.

Legend

  • E = Estimated
  • M = Missing
  • NA = Not Available
  • ‡ = Partner data that is not subject to review by the National Climate Archives
Date modified: